Weather History for KHSE - September, 2013

Change the Weather History Date:

Saturday, September 14, 2013

  Actual Average Record
Temperature  
Mean Temperature 75 °F 75 °F  
Max Temperature 80 °F 80 °F 87 °F (1957)
Min Temperature 69 °F 70 °F 55 °F (1964)
Degree Days  
Heating Degree Days 0 0  
Month to date heating degree days 0 0  
Since 1 July heating degree days 0 0  
Cooling Degree Days 10 10  
Month to date cooling degree days 187 157  
Year to date cooling degree days 1731 1463  
Growing Degree Days 24 (Base 50)    
Moisture  
Dew Point 62 °F    
Average Humidity 64    
Maximum Humidity 78    
Minimum Humidity 50    
Precipitation  
Precipitation 0.00 in 0.23 in 4.00 in (1917)
Month to date precipitation 1.33 3.15  
Year to date precipitation 32.53 40.34  
Snow  
Snow 0.00 in - - ()
Month to date snowfall 0.0  
Since 1 July snowfall 0.0  
Snow Depth 0.00 in    
Sea Level Pressure  
Sea Level Pressure 29.98 in    
Wind  
Wind Speed 8 mph (NE)    
Max Wind Speed 15 mph    
Max Gust Speed 26 mph    
Visibility 10 miles    
Events      
T = Trace of Precipitation, MM = Missing Value Source: NWS Daily Summary

Daily Weather History Graph

Daily Weather History Graph

Search for Another Location

Airport or City:

Trip Planner

Search our weather history database for the weather conditions in past years. The results will help you decide how hot, cold, wet, or windy it might be!

Date:

Astronomy

Sep. 14, 2013 Rise Set
Actual Time 6:44 AM EDT 7:10 PM EDT
Civil Twilight 6:19 AM EDT 7:36 PM EDT
Nautical Twilight 5:49 AM EDT 8:05 PM EDT
Astronomical Twilight 5:18 AM EDT 8:36 PM EDT
Moon 3:41 PM EDT (9/14) 1:22 AM EDT (9/14)
Length of Visible Light 13h 16m
Length of Day
12h 25m
Waxing Gibbous, 72% of the Moon is Illuminated
Sep 14
Waxing Gibbous
Sep 19
Full
Sep 26
Last Quarter
Oct 4
New
Oct 11
First Quarter

Hourly Weather History & Observations

Time (EDT) Temp. Dew Point Humidity Pressure Visibility Wind Dir Wind Speed Gust Speed Precip Events Conditions
12:51 AM 75.0 °F 62.1 °F 64% 29.83 in 10.0 mi Variable 4.6 mph - N/A   Mostly Cloudy
1:51 AM 75.0 °F 61.0 °F 62% 29.85 in 10.0 mi ENE 5.8 mph - N/A   Overcast
2:51 AM 75.9 °F 60.1 °F 58% 29.86 in 10.0 mi Variable 5.8 mph - N/A   Overcast
3:51 AM 75.0 °F 59.0 °F 57% 29.86 in 10.0 mi NE 4.6 mph - N/A   Mostly Cloudy
4:51 AM 73.9 °F 62.1 °F 66% 29.86 in 10.0 mi NE 5.8 mph - N/A   Partly Cloudy
5:51 AM 73.0 °F 61.0 °F 66% 29.86 in 10.0 mi ENE 4.6 mph - N/A   Clear
6:51 AM 73.0 °F 60.1 °F 64% 29.89 in 10.0 mi NE 4.6 mph - N/A   Scattered Clouds
7:51 AM 75.0 °F 61.0 °F 62% 29.91 in 10.0 mi Variable 5.8 mph - N/A   Clear
8:51 AM 77.0 °F 57.9 °F 52% 29.93 in 10.0 mi NNE 9.2 mph - N/A   Clear
9:51 AM 75.9 °F 64.9 °F 69% 29.96 in 10.0 mi NNE 12.7 mph 18.4 mph N/A   Overcast
10:51 AM 75.9 °F 64.0 °F 67% 29.97 in 10.0 mi NE 12.7 mph 20.7 mph N/A   Mostly Cloudy
11:51 AM 77.0 °F 63.0 °F 62% 29.98 in 10.0 mi NNE 9.2 mph 21.9 mph N/A   Mostly Cloudy
12:51 PM 77.0 °F 63.0 °F 62% 30.00 in 10.0 mi NNE 10.4 mph 20.7 mph N/A   Overcast
1:51 PM 77.0 °F 64.0 °F 64% 30.01 in 10.0 mi NNE 11.5 mph 21.9 mph N/A   Overcast
2:51 PM 78.1 °F 64.0 °F 62% 30.01 in 10.0 mi NE 13.8 mph 23.0 mph N/A   Scattered Clouds
3:51 PM 75.9 °F 64.9 °F 69% 30.01 in 10.0 mi NNE 10.4 mph 24.2 mph N/A   Mostly Cloudy
4:08 PM 75.2 °F 64.4 °F 69% 30.01 in 10.0 mi NE 11.5 mph 23.0 mph N/A   Mostly Cloudy
4:30 PM 75.2 °F 64.4 °F 69% 30.02 in 10.0 mi NNE 10.4 mph 21.9 mph N/A   Partly Cloudy
4:51 PM 75.0 °F 64.0 °F 69% 30.02 in 10.0 mi NNE 10.4 mph 20.7 mph N/A   Scattered Clouds
5:51 PM 73.0 °F 62.1 °F 68% 30.04 in 10.0 mi NE 12.7 mph 20.7 mph N/A   Partly Cloudy
6:51 PM 71.1 °F 62.1 °F 73% 30.05 in 10.0 mi NE 10.4 mph 20.7 mph N/A   Clear
7:51 PM 71.1 °F 63.0 °F 75% 30.07 in 10.0 mi NE 8.1 mph 18.4 mph N/A   Clear
8:51 PM 70.0 °F 62.1 °F 76% 30.10 in 10.0 mi NE 8.1 mph - N/A   Clear
9:51 PM 70.0 °F 62.1 °F 76% 30.11 in 10.0 mi Variable 5.8 mph - N/A   Clear
10:51 PM 69.1 °F 62.1 °F 78% 30.12 in 10.0 mi ENE 4.6 mph - N/A   Clear
11:51 PM 69.1 °F 62.1 °F 78% 30.12 in 10.0 mi NE 4.6 mph - N/A   Clear